Wind_Speed
19 13 14 15 14 19 19 19 19 6 7 14 16 15 15 12 13 16 13 16 21 18 18 22 19 20 22 16 14 19 22 21 22 22 19 17 18 16 14 14 14 14 13 14 16 17 17 17 18 17 16 17 18 19 19 19 17 16 16 15 15 16 18 18 18 19 20 19 18 17 17 16 16 16 15 14 13 12 11 11 11 11 11 11 9 8
18 13 16 18 16 19 19 19 18 8 7 13 14 13 14 12 11 16 15 15 18 15 14 21 21 20 22 18 15 18 19 19 20 21 20 19 18 17 16 15 14 13 13 14 15 16 17 17 18 18 18 18 19 20 21 19 17 16 16 15 16 16 17 18 18 19 19 19 19 18 17 17 16 16 15 15 13 12 12 12 11 11 11 11 10 9
14 14 19 20 15 16 18 20 19 11 9 11 11 12 12 12 11 13 16 15 15 12 11 18 19 17 20 20 17 17 16 18 21 21 20 20 19 18 18 16 14 14 15 16 16 17 18 16 17 19 19 19 20 21 21 19 17 17 16 16 16 16 18 17 17 18 20 20 19 17 17 17 16 16 16 14 13 13 12 11 11 11 11 10 9 9
13 14 19 19 16 16 17 20 20 13 9 9 10 11 10 13 13 10 14 16 14 11 10 14 15 13 16 18 17 18 19 18 19 20 19 19 19 18 17 15 15 16 17 18 18 18 18 17 18 19 19 19 19 20 20 18 18 17 17 17 17 17 18 18 19 20 20 19 18 16 15 16 17 16 15 14 14 13 12 10 11 12 12 10 9 9
13 13 17 19 16 17 17 18 20 13 8 10 11 11 11 14 16 10 12 15 13 12 12 11 11 10 14 17 16 17 19 18 18 19 19 18 17 16 16 14 15 17 18 20 20 19 18 18 18 19 18 19 21 22 19 18 18 17 17 18 18 18 17 17 19 20 19 19 18 17 17 19 18 16 15 15 15 13 12 11 12 11 10 9 9 8
14 13 16 18 16 18 18 15 19 16 9 11 12 12 12 15 17 13 14 15 11 11 13 12 10 9 13 18 16 15 16 16 16 17 18 19 18 16 15 16 17 17 18 20 21 21 20 18 18 19 18 19 21 22 18 16 17 16 17 18 19 20 19 18 19 21 20 18 17 18 21 21 21 18 16 15 14 12 12 13 12 10 9 9 9 8
11 13 15 17 18 19 17 14 18 19 11 9 12 13 11 14 18 14 15 15 10 9 14 15 11 7 11 16 17 16 17 18 16 16 17 18 18 18 17 18 19 19 19 20 21 21 20 18 18 20 20 20 21 20 17 16 16 17 19 21 22 22 21 19 20 20 18 17 17 19 21 21 20 18 15 14 13 12 12 12 11 10 10 9 8 7
10 14 15 17 19 17 14 12 17 21 13 7 13 16 12 11 16 16 14 13 9 7 12 17 14 8 8 13 18 19 19 20 20 16 16 17 18 20 20 20 20 19 19 20 22 21 20 19 18 20 20 18 18 17 16 15 16 19 21 22 21 20 19 19 20 19 17 18 19 19 20 20 18 17 15 14 14 12 11 12 12 11 11 10 9 7
12 15 17 19 17 14 12 11 16 21 15 6 12 18 15 12 14 14 12 10 9 9 10 16 17 10 8 10 17 21 20 21 23 19 16 17 20 21 22 21 20 19 19 20 21 20 21 20 18 18 17 16 16 15 13 14 16 18 17 18 18 17 18 20 20 19 18 18 20 21 21 20 19 19 17 12 12 11 12 16 15 11 10 9 7 5
12 15 17 17 14 12 14 13 15 21 16 8 12 16 15 12 12 11 11 10 10 10 10 16 18 12 8 8 13 17 19 20 19 17 16 19 22 22 21 22 20 19 19 19 20 20 20 19 18 18 16 15 14 12 12 14 15 15 14 15 15 15 17 20 19 18 18 19 21 22 21 21 21 19 15 10 11 13 15 20 16 10 9 7 5 4
12 16 16 14 12 12 15 14 14 19 18 11 12 13 12 10 10 8 9 9 9 10 12 17 21 16 9 8 12 13 14 17 17 16 17 20 22 22 22 22 22 20 19 20 20 20 20 18 19 20 17 15 13 11 13 14 14 14 15 16 17 18 21 22 21 20 20 21 22 22 20 20 19 14 10 10 13 15 18 19 13 9 8 5 4 3
11 15 12 12 15 13 15 14 13 18 20 12 11 12 10 9 8 7 7 9 9 10 13 17 21 19 13 8 10 12 15 19 19 18 19 19 21 23 23 23 23 21 20 20 20 20 20 18 19 20 19 17 14 14 16 18 17 15 15 17 20 24 25 24 24 23 22 23 23 20 19 18 16 11 9 11 13 15 19 17 10 7 6 5 3 2
8 13 13 14 16 15 14 13 12 15 17 13 11 12 11 9 8 9 9 9 9 8 10 17 19 16 13 9 8 13 18 20 19 19 21 21 22 24 23 22 22 22 22 20 21 21 21 20 19 21 21 18 17 18 18 20 19 15 17 20 20 24 26 25 26 25 22 23 22 19 18 15 11 9 10 12 14 16 16 13 8 6 5 4 2 1
7 12 16 15 14 16 16 13 11 13 16 15 13 12 11 10 9 11 11 9 10 6 6 14 15 11 11 11 10 11 16 21 22 23 25 24 24 23 21 21 21 22 22 21 22 22 22 21 20 21 19 18 19 19 20 21 18 18 22 20 17 22 26 26 26 24 22 22 19 17 16 12 10 12 12 13 16 16 14 11 8 6 4 3 2 2
9 10 14 15 12 16 18 15 12 13 15 15 12 11 10 8 8 9 9 9 11 7 7 13 12 9 8 7 11 11 12 19 23 25 25 23 24 21 19 20 21 22 22 22 22 22 22 21 20 20 19 20 20 19 21 21 20 25 25 18 16 22 26 27 25 24 23 21 18 17 14 11 12 16 15 15 18 17 14 10 7 4 4 3 1 4
10 9 14 16 13 17 18 15 15 13 12 12 11 10 9 7 6 5 3 5 9 8 8 10 7 6 4 3 6 11 11 15 18 22 22 19 19 20 20 21 22 23 23 23 22 22 22 21 21 21 21 22 20 20 24 23 24 27 22 17 20 22 26 27 23 21 20 18 17 16 14 13 15 17 16 18 20 17 13 8 6 4 3 2 3 8
9 7 16 18 14 18 19 16 16 13 10 10 10 11 9 6 4 4 2 3 7 8 7 9 7 5 4 3 7 12 12 13 14 16 18 17 19 20 20 21 23 23 23 23 23 22 23 22 22 22 23 23 22 22 25 25 26 24 18 20 24 22 23 24 19 18 17 17 16 14 13 15 17 17 18 20 20 16 12 8 6 4 2 1 5 10
8 7 15 19 14 17 20 18 17 14 11 10 10 11 10 4 3 5 6 5 8 8 6 10 12 9 6 5 10 14 15 15 14 14 16 16 19 20 19 21 22 22 23 23 22 21 22 22 22 23 23 24 24 24 25 25 24 20 17 22 26 23 22 20 19 19 18 17 15 13 15 16 17 19 21 21 19 14 11 8 6 4 1 2 7 12
8 6 12 18 15 15 18 17 14 14 16 11 9 9 9 7 5 6 6 7 9 8 6 10 13 10 8 6 11 15 16 15 15 15 15 15 17 19 19 20 21 21 22 22 22 21 22 23 23 24 25 24 25 25 25 24 22 18 19 23 25 24 22 21 21 21 18 17 15 15 17 17 18 20 21 20 18 13 11 9 6 4 1 3 9 12
8 4 9 16 16 14 14 13 11 12 14 10 8 9 8 7 6 6 5 6 8 8 5 8 11 9 7 7 12 16 17 16 15 14 14 15 17 19 18 19 20 21 22 23 23 23 24 24 24 25 25 25 25 25 26 25 21 20 21 23 23 22 21 22 22 21 19 18 17 17 19 19 20 21 20 20 17 13 12 9 5 3 1 3 9 12
6 4 7 14 16 14 12 11 12 12 12 9 8 10 10 6 5 6 5 4 6 7 6 6 8 7 7 6 8 13 16 16 16 14 13 14 18 18 18 19 21 22 23 24 24 24 24 24 24 25 25 25 25 25 25 25 23 22 22 23 24 22 22 23 23 21 20 18 18 19 20 21 22 22 21 20 17 14 13 9 5 2 3 3 9 13
5 4 8 12 12 12 11 12 14 14 13 11 8 9 11 8 5 6 6 5 5 5 5 6 5 6 7 7 7 10 12 14 16 16 13 15 18 18 18 19 21 21 22 23 23 24 25 25 24 26 26 26 26 26 26 27 26 24 23 24 26 25 24 24 23 22 21 19 19 21 22 22 23 22 22 20 17 15 14 9 5 2 2 1 9 13
4 3 9 12 10 11 13 14 15 16 14 12 10 9 10 9 7 6 6 7 5 2 2 4 4 4 6 5 7 8 8 9 14 16 14 14 18 18 18 19 19 19 21 22 22 23 26 26 24 25 27 27 28 28 27 28 27 24 23 25 26 26 25 23 23 23 21 20 21 22 23 24 23 22 21 19 18 16 13 8 5 3 2 1 9 14
4 3 8 10 8 10 13 13 13 15 14 12 11 11 11 11 10 7 4 5 6 5 4 4 5 4 5 3 3 4 4 6 9 12 12 13 16 17 18 19 19 20 21 22 23 24 27 26 24 26 28 27 28 29 29 30 28 24 23 23 22 23 24 24 24 23 21 21 22 23 24 24 24 23 22 20 19 17 12 8 6 4 3 3 9 14
4 4 8 9 9 9 10 10 11 14 14 10 10 12 12 13 15 11 3 2 5 6 4 4 5 4 4 3 2 4 5 7 8 10 12 14 16 17 18 19 20 20 22 24 25 27 28 26 25 27 28 27 29 29 30 32 30 25 22 20 19 20 23 24 24 22 22 23 23 24 25 24 24 24 22 21 20 16 12 8 7 7 5 5 11 14
1 4 7 9 10 11 10 11 12 13 12 10 12 15 14 16 19 13 5 4 5 4 3 4 4 7 7 6 6 5 7 8 8 10 13 15 17 19 19 20 20 21 24 25 26 28 28 25 25 27 27 28 30 29 30 32 29 24 21 19 19 20 22 25 24 23 23 24 24 25 25 23 23 23 22 21 19 15 12 10 9 8 6 7 13 14
2 4 8 10 10 9 9 11 13 13 13 13 16 18 16 16 18 13 7 5 5 5 5 4 1 5 6 7 7 6 7 8 9 10 12 14 17 19 20 20 21 22 24 25 27 28 27 24 25 27 28 30 30 29 30 30 27 25 23 21 21 20 22 26 26 24 22 23 25 25 24 22 20 21 22 20 17 15 13 12 11 8 6 9 14 14
3 5 9 11 12 10 9 11 13 15 15 15 17 18 16 16 18 16 11 6 4 5 6 3 3 3 4 5 5 6 7 8 8 10 12 14 17 19 19 20 22 22 24 26 27 28 27 25 27 29 30 30 29 28 29 28 25 26 25 23 22 22 22 25 26 23 21 22 24 24 24 22 20 20 21 19 16 16 14 14 13 8 6 12 15 15
3 5 8 9 11 11 9 11 14 14 14 14 14 16 16 17 18 17 15 10 7 6 2 6 5 4 6 6 2 4 6 8 9 10 12 14 17 19 20 21 23 24 26 28 28 28 27 27 28 30 31 30 28 27 28 27 27 28 24 21 23 25 26 26 25 23 21 21 23 24 24 24 22 20 20 17 17 17 15 15 12 8 9 14 15 16
4 3 6 8 10 10 9 11 15 16 15 14 14 15 16 16 16 16 17 14 11 9 4 5 6 6 6 6 3 4 5 7 9 11 13 15 18 20 21 22 24 25 27 28 28 27 27 28 29 30 32 32 30 29 29 29 32 30 24 22 25 29 29 28 26 25 23 21 21 24 25 24 22 20 19 18 18 18 16 14 10 9 13 15 15 17
4 2 3 5 8 11 10 11 15 17 16 15 15 15 16 16 15 15 16 14 12 11 7 5 6 3 5 5 3 5 5 7 9 12 14 17 19 21 21 23 24 25 26 27 27 26 26 29 29 30 33 34 33 31 30 33 35 29 24 25 27 29 29 27 27 26 24 20 19 22 24 23 22 21 20 21 20 18 16 13 11 13 16 16 16 18
5 3 2 5 6 10 12 12 13 15 15 15 17 18 17 16 15 14 14 14 12 12 10 7 6 1 5 4 3 4 5 7 9 12 15 17 20 21 21 22 23 24 26 27 28 26 25 28 29 31 33 34 34 31 30 35 35 28 27 29 28 29 29 27 28 27 24 19 17 20 24 24 24 24 22 22 21 18 15 13 13 15 17 18 18 19
6 5 4 6 6 9 13 14 12 13 12 11 14 18 18 16 14 14 16 16 13 10 8 6 2 4 5 3 3 4 5 6 8 11 14 17 19 20 20 20 22 24 25 27 29 26 24 25 26 30 33 33 34 32 29 32 33 29 31 30 26 29 29 27 29 28 22 18 17 20 24 26 26 24 22 21 20 17 15 15 15 17 18 19 19 20
7 6 5 5 5 9 14 14 11 11 10 5 6 14 18 18 16 15 16 16 13 9 7 4 3 3 3 2 2 2 5 6 7 11 13 15 17 18 18 19 20 22 24 25 27 25 24 24 25 29 33 33 33 31 27 28 32 34 33 27 24 28 29 28 31 30 23 21 20 20 24 26 25 24 22 22 20 17 16 17 18 18 19 20 20 21
6 6 5 5 5 8 11 11 10 9 5 3 3 6 10 13 16 16 15 14 12 11 10 7 5 3 2 2 1 1 4 6 7 9 12 13 15 15 16 17 18 21 22 23 25 25 24 23 24 27 30 31 33 31 25 27 34 35 31 24 23 28 29 29 34 32 25 24 23 22 23 24 24 24 23 21 19 18 18 19 20 21 21 21 21 22
7 5 5 5 5 8 9 9 7 6 6 7 5 5 6 7 11 13 12 10 7 8 8 6 4 2 2 1 1 2 4 6 6 8 10 12 12 13 14 15 17 20 21 22 24 25 23 22 22 24 26 28 31 28 23 28 33 30 27 26 25 28 30 32 34 32 27 25 24 22 23 24 24 24 23 20 19 21 22 22 22 23 22 22 22 23
8 6 5 5 5 7 9 8 6 6 8 7 6 6 5 5 8 9 8 7 4 4 5 5 3 1 2 1 2 4 6 7 5 7 10 11 11 11 12 14 16 19 20 21 22 22 21 20 21 23 25 27 27 24 24 30 31 25 26 28 25 26 32 34 33 31 27 24 21 20 22 25 25 24 22 21 22 24 24 23 24 24 24 24 24 25
9 7 5 3 4 7 8 8 7 7 7 6 6 6 3 0 2 4 6 5 5 3 3 4 3 3 4 3 4 7 8 6 3 6 11 13 11 10 12 14 16 18 19 21 21 20 19 19 19 21 24 25 25 24 26 29 26 21 25 29 25 26 33 35 33 32 29 24 21 20 21 23 23 22 21 23 25 25 24 25 26 26 25 25 26 27
10 7 6 4 6 8 8 7 7 5 5 5 7 7 4 1 2 2 5 6 5 4 3 4 4 6 7 7 8 7 5 3 3 5 11 14 13 11 12 14 16 17 18 20 21 21 20 19 18 19 21 23 25 25 25 25 22 21 25 28 26 28 34 36 35 33 31 27 24 24 24 23 22 22 22 24 26 25 25 27 28 27 26 26 26 27
7 5 6 6 8 8 7 7 6 4 5 6 6 6 4 4 5 6 8 5 5 4 4 5 6 8 9 11 10 5 0 2 4 5 9 14 14 14 14 14 16 17 17 17 19 20 19 18 19 19 19 20 22 25 26 24 22 22 23 25 28 30 33 36 36 35 33 30 27 26 25 24 24 25 25 26 27 27 27 28 28 28 28 27 26 25
2 1 2 6 8 7 7 7 6 5 5 5 5 4 4 6 7 8 5 2 5 5 5 6 8 10 11 11 8 3 5 5 4 4 10 14 15 15 14 14 15 16 16 16 17 18 18 18 18 18 18 18 19 23 25 25 26 25 23 24 28 30 30 32 36 35 32 30 26 24 23 24 24 25 26 27 27 26 27 27 28 28 27 26 26 26
4 2 2 4 5 5 5 6 6 6 4 5 5 4 4 5 5 4 3 4 5 6 8 8 10 12 11 8 5 6 7 8 6 8 14 15 15 15 14 14 15 15 16 16 17 18 18 17 17 17 16 17 18 21 23 24 26 27 25 24 25 25 25 29 34 33 29 27 26 24 24 25 24 23 24 25 24 25 26 27 27 28 28 27 27 27
6 2 4 4 2 3 6 6 5 6 4 7 4 3 3 1 4 6 6 5 7 9 10 10 11 12 10 7 7 8 8 10 10 11 13 14 14 14 13 13 14 15 16 16 16 17 17 17 17 17 17 16 17 19 21 23 25 26 26 25 23 21 22 26 30 30 27 26 26 25 24 24 22 21 22 23 24 26 27 27 27 28 27 27 28 29
6 3 2 4 3 2 4 5 3 3 5 8 6 4 6 7 7 7 7 7 9 9 9 10 11 11 9 8 7 5 7 9 10 9 10 12 12 13 13 13 14 15 16 16 15 16 16 16 16 18 17 16 15 17 20 24 25 23 24 25 24 22 22 23 25 27 27 27 27 26 24 23 22 22 22 23 25 27 27 26 27 26 26 28 29 30
7 6 3 3 4 3 4 6 4 5 7 9 10 11 12 11 9 8 9 10 10 9 10 10 10 9 9 8 6 3 3 5 6 7 8 9 11 12 13 14 15 16 15 14 15 15 16 16 16 17 18 16 14 15 18 21 23 22 22 25 24 22 22 23 23 25 27 27 27 27 25 24 23 22 22 23 26 27 26 25 25 25 26 28 30 30
5 6 4 2 3 4 6 7 6 7 9 11 11 12 12 11 10 10 11 11 10 10 11 11 10 9 8 7 6 4 4 5 6 6 7 7 10 12 12 13 14 14 14 14 15 15 16 16 15 16 18 17 15 15 16 19 22 23 23 25 24 21 21 23 23 24 26 27 27 27 27 26 24 22 22 23 25 25 23 23 25 26 28 29 30 29
3 5 4 3 4 3 5 7 7 7 8 9 9 11 12 12 12 12 12 12 11 11 12 13 12 11 9 7 6 6 6 7 7 7 7 7 8 11 13 14 13 12 13 14 14 15 16 16 16 16 18 17 16 17 18 19 22 23 23 24 25 23 22 23 23 24 26 26 27 28 28 27 25 24 24 24 25 25 24 23 25 27 28 30 30 29
3 6 5 4 6 3 3 5 5 6 9 10 10 10 10 11 12 12 12 12 12 13 14 15 13 11 10 9 8 7 7 8 8 9 9 8 8 10 12 13 12 12 13 14 14 15 16 16 17 17 17 17 17 18 19 20 21 21 21 22 24 24 23 23 23 23 24 27 29 29 29 28 25 24 25 26 26 27 25 24 25 27 28 29 30 29
4 5 4 3 2 2 2 4 4 5 8 10 11 11 10 10 10 11 12 12 11 12 14 15 15 14 13 13 11 8 7 8 8 9 10 10 10 10 10 11 12 13 14 14 14 16 15 15 16 17 16 17 17 17 17 18 18 19 20 20 21 21 22 22 23 24 26 29 30 29 29 28 26 25 26 27 28 28 26 25 26 26 25 26 28 28
3 2 3 1 2 2 3 4 5 3 4 7 10 11 10 10 10 11 12 12 11 11 11 12 14 15 15 15 13 9 7 8 8 9 9 9 10 10 10 11 12 13 14 13 14 15 15 14 15 17 18 18 17 16 16 16 16 16 18 19 20 20 20 20 22 25 26 28 30 29 29 29 27 25 26 28 29 29 27 27 27 26 24 24 26 26
3 3 2 1 2 2 3 4 4 3 3 5 8 9 9 9 10 11 11 12 12 12 11 11 12 12 13 14 13 11 10 9 8 9 9 9 9 9 10 10 12 13 14 14 14 15 17 17 16 17 18 18 16 15 16 16 15 15 16 18 19 19 19 20 21 25 27 28 28 28 27 27 26 26 27 28 29 29 29 29 28 26 24 24 23 22
Wind_Direction
197 199 205 208 206 203 199 207 211 223 255 214 192 194 198 190 192 195 185 176 186 198 206 208 211 214 216 211 198 193 193 198 202 203 200 199 202 200 199 196 191 191 188 189 201 203 198 198 194 191 195 198 200 204 203 201 195 188 188 185 183 182 180 182 180 177 179 183 187 190 191 193 195 199 198 196 199 201 200 199 196 191 192 197 192 187
200 208 210 208 208 205 197 206 211 214 239 211 191 189 191 196 192 191 193 178 186 205 206 206 214 216 216 214 201 194 195 199 203 201 197 197 199 202 207 204 194 189 184 188 196 198 200 199 194 193 196 199 200 203 205 202 195 190 188 184 183 179 178 184 181 178 184 190 192 194 195 195 196 199 200 199 202 205 198 194 193 192 194 196 185 182
202 216 213 204 204 208 198 202 208 208 213 201 190 193 192 197 191 187 196 185 185 207 205 201 213 218 216 215 206 195 196 201 204 205 202 199 198 200 207 205 195 187 186 195 200 198 200 197 193 195 198 201 203 206 208 203 195 190 186 184 184 181 181 182 178 181 190 193 193 195 196 199 202 201 203 205 206 206 199 191 194 195 193 190 182 180
202 212 210 200 196 203 197 196 202 205 209 205 195 197 197 191 188 187 191 188 186 204 214 202 208 220 215 214 211 198 196 201 204 208 210 206 202 201 204 203 195 191 193 200 203 199 197 194 193 196 199 202 205 208 207 199 194 190 183 184 185 185 184 180 180 185 188 192 193 193 198 203 206 205 208 210 204 202 201 198 201 197 187 183 182 180
206 204 201 198 194 197 195 191 197 205 209 215 211 204 199 188 192 195 180 182 186 202 219 206 201 221 213 209 208 196 195 199 200 205 210 208 207 206 205 203 199 197 198 201 202 201 199 198 198 199 200 204 207 211 208 197 193 189 184 186 185 185 187 182 181 181 181 191 194 190 197 201 201 203 207 207 201 198 204 208 205 195 185 183 184 182
210 201 194 195 195 198 202 195 197 203 202 210 216 216 208 188 193 198 173 175 188 198 205 203 204 214 207 205 201 191 195 199 198 201 205 205 206 207 206 204 203 203 203 203 205 204 204 202 201 201 202 206 211 213 209 198 193 190 183 186 186 183 185 181 180 182 185 193 194 193 199 199 199 201 201 200 199 205 215 211 198 187 187 188 186 185
207 200 194 194 195 197 202 199 195 198 203 205 201 211 217 191 191 197 178 179 198 197 192 202 219 213 197 202 199 194 196 198 199 202 204 204 202 204 206 206 205 204 203 203 206 206 206 204 199 203 208 211 215 215 210 200 195 191 182 184 187 185 186 185 188 193 192 193 195 199 201 198 199 200 196 196 201 212 218 209 193 186 190 188 184 187
196 193 193 193 194 195 197 196 189 192 206 204 179 192 207 194 191 194 187 191 204 197 188 199 217 230 208 198 194 194 197 198 201 202 201 202 201 203 206 207 205 203 202 202 205 206 206 205 204 209 213 214 217 215 208 202 198 191 182 183 187 184 186 192 197 196 189 189 191 192 197 198 199 199 198 202 209 213 207 200 193 185 187 184 182 190
184 189 191 190 193 196 194 191 182 188 206 197 166 184 197 202 202 197 195 203 203 201 195 195 205 228 229 195 184 189 195 201 200 198 198 200 202 205 206 206 204 202 202 201 205 208 208 208 208 212 215 214 214 208 201 201 197 186 181 185 185 183 186 192 195 189 183 189 190 189 194 198 199 201 204 207 215 216 196 188 187 184 188 187 185 196
178 193 195 193 196 196 191 189 179 186 202 180 161 180 189 201 210 204 205 206 201 209 209 194 194 214 231 193 179 187 195 200 197 195 199 201 203 204 203 203 201 199 200 201 206 210 210 210 210 213 215 212 209 200 195 201 195 184 188 189 184 190 194 191 189 184 183 190 191 193 194 194 199 203 207 208 211 213 192 180 182 192 198 190 186 197
182 193 198 200 202 197 189 187 178 188 199 179 163 178 179 189 203 205 212 208 204 215 217 201 194 205 225 196 184 193 195 195 193 193 199 201 202 202 201 201 199 197 197 199 204 207 210 210 211 216 215 210 207 193 187 193 190 188 193 181 171 181 189 189 188 183 187 191 193 197 195 192 199 202 205 209 208 206 190 179 184 195 194 187 184 187
188 189 192 200 204 199 187 185 178 188 200 191 173 177 169 175 190 194 206 212 215 216 214 205 195 201 219 209 187 187 189 193 194 194 196 198 199 199 199 198 197 194 192 195 200 202 206 206 210 216 215 213 207 189 183 186 186 192 190 171 164 173 180 184 185 183 188 193 194 197 195 194 200 202 202 204 204 201 191 185 187 187 181 180 179 172
194 189 182 188 201 202 187 180 176 184 199 199 185 180 173 170 177 189 196 205 214 215 207 199 192 200 220 223 187 174 185 195 196 196 196 196 198 197 195 192 190 190 188 190 196 199 202 204 208 213 216 216 205 190 185 186 191 197 182 168 163 168 175 179 182 184 187 190 190 192 195 196 198 207 205 198 198 196 189 186 185 179 173 168 162 158
183 187 183 183 194 200 194 183 176 181 192 197 191 184 181 172 175 190 192 195 205 201 190 191 189 202 218 220 207 185 188 195 196 200 199 196 198 195 190 186 183 185 184 185 193 198 201 203 206 211 214 211 202 192 184 185 196 189 172 171 169 167 175 180 181 185 186 185 185 187 194 193 189 203 204 195 193 188 183 184 179 173 165 144 133 152
172 176 184 188 183 189 199 195 182 180 187 195 197 196 196 186 181 192 189 193 196 176 170 185 192 206 207 206 206 195 190 192 195 201 201 201 202 194 182 180 179 181 182 183 190 196 200 203 205 208 206 200 199 189 176 179 189 178 168 179 182 170 177 182 180 184 185 182 181 187 196 195 193 199 194 188 188 181 179 179 168 156 141 111 115 147
183 177 177 190 188 184 196 199 187 184 185 191 202 208 209 199 185 186 192 197 187 169 171 185 195 202 173 111 172 181 182 185 189 195 195 194 192 181 171 174 177 179 181 183 189 193 197 202 205 205 199 197 196 183 174 179 182 176 174 186 182 173 177 180 177 180 182 180 183 193 200 196 199 199 187 183 184 177 171 166 154 148 128 96 127 142
187 168 165 184 195 186 193 199 192 192 185 181 199 211 205 203 199 176 111 107 173 179 175 182 192 186 162 131 162 175 182 177 174 183 185 179 173 170 171 176 178 180 181 183 187 189 191 197 202 200 195 196 193 181 177 184 185 185 192 186 175 170 172 172 169 172 179 183 188 200 199 189 193 194 184 180 179 172 165 158 151 155 148 132 138 139
180 144 161 183 189 183 193 199 194 206 209 182 189 202 190 199 253 203 166 141 177 191 170 179 194 191 186 179 168 179 187 178 172 178 181 177 174 175 178 181 181 182 182 182 183 185 187 193 197 194 192 194 193 185 182 186 190 196 196 178 168 165 165 168 171 176 183 184 184 198 199 188 186 186 180 176 174 169 164 157 152 165 197 153 137 140
183 141 161 185 185 174 190 197 194 214 224 208 192 193 190 196 210 200 184 170 184 195 173 182 198 200 201 183 166 182 189 180 179 183 181 179 180 184 185 183 181 179 178 179 180 181 185 193 196 190 190 194 194 189 186 189 192 189 179 171 167 167 168 172 177 183 189 184 181 193 197 191 185 180 176 175 172 168 161 155 157 178 209 123 136 147
196 172 158 182 184 171 182 196 194 199 211 222 218 200 201 212 204 192 192 184 188 197 185 182 195 203 206 185 172 185 192 186 184 183 182 183 185 188 184 177 176 175 175 178 179 180 185 192 194 188 187 193 191 185 186 189 186 175 169 168 168 169 171 174 176 183 191 188 185 190 194 189 180 174 175 176 174 168 160 155 163 180 48 100 142 154
199 202 160 171 179 177 184 196 198 190 188 206 215 194 193 207 210 193 193 209 202 197 187 176 188 202 200 188 178 183 189 190 187 183 184 190 189 185 178 173 174 175 176 179 179 180 184 188 189 186 187 191 185 179 183 186 179 169 167 168 169 171 176 178 179 185 193 193 186 188 192 185 175 173 175 175 175 171 162 160 166 150 39 96 152 158
191 193 165 165 175 186 188 188 197 197 189 198 203 190 190 191 194 185 181 210 220 202 194 182 187 194 182 188 196 187 188 191 190 188 188 191 189 181 176 175 175 174 175 177 176 177 182 186 185 184 186 187 183 179 182 185 177 168 168 172 174 176 179 182 183 187 194 195 187 185 187 181 174 174 173 172 175 172 164 163 162 131 20 100 161 163
201 202 169 166 173 185 179 178 198 199 192 205 213 204 200 193 201 200 171 184 201 192 186 182 182 157 132 165 203 198 196 193 192 196 192 183 180 175 173 174 172 172 172 172 174 177 181 184 182 182 185 186 185 182 181 185 183 174 171 174 178 181 182 182 183 187 194 194 186 183 182 176 172 172 171 172 176 170 163 166 166 158 318 244 171 168
196 207 168 161 166 178 171 170 197 200 190 203 212 210 208 198 208 220 163 160 191 183 170 175 185 161 98 100 194 183 172 171 181 191 182 167 166 166 167 168 167 169 169 171 175 177 179 180 179 181 182 182 183 180 180 188 188 178 171 172 176 180 182 182 183 188 193 190 182 178 176 172 170 171 174 177 176 168 164 172 181 199 261 237 181 173
199 203 165 157 160 167 166 167 192 199 193 200 205 205 208 201 206 215 193 168 197 183 187 192 174 148 102 104 142 156 172 175 172 174 167 159 160 162 164 166 167 169 171 175 176 176 177 177 177 179 179 178 178 175 178 188 189 180 173 171 171 174 178 183 185 187 189 187 179 173 171 170 171 174 178 178 172 167 172 183 197 222 248 215 182 175
215 212 170 163 164 167 176 180 185 189 191 200 199 197 203 201 201 206 203 202 186 145 181 211 134 103 113 133 137 149 176 182 171 166 164 161 161 163 164 166 169 172 174 176 176 175 176 176 177 179 177 177 176 172 177 189 192 185 177 172 171 172 178 184 185 183 184 183 177 173 171 170 172 176 178 175 168 169 180 192 207 230 245 196 177 175
191 212 191 188 183 179 185 185 182 182 188 197 194 193 198 199 199 204 207 204 182 153 188 220 55 77 112 126 129 144 165 172 165 163 164 163 163 165 166 166 170 174 176 175 174 174 175 175 176 177 176 176 175 173 180 191 193 187 182 177 173 173 178 182 181 179 180 180 179 178 175 171 172 178 178 172 170 176 185 195 206 225 226 183 174 175
204 196 193 202 208 204 188 177 179 184 190 194 193 193 194 194 201 210 214 207 195 186 178 144 37 18 50 70 109 149 162 166 167 168 167 165 165 166 166 167 171 174 175 175 175 175 174 174 176 179 178 175 172 173 181 188 189 188 188 182 175 176 179 178 177 179 181 182 183 183 181 177 177 180 177 172 176 185 191 196 204 217 204 178 173 176
236 200 190 205 216 211 190 173 176 183 188 192 191 192 192 194 201 209 217 220 222 223 145 70 38 351 12 24 52 141 156 165 166 168 167 166 167 168 168 171 173 175 176 176 176 177 175 175 177 178 177 175 174 177 182 185 186 188 191 185 179 181 179 176 178 182 182 182 185 188 188 185 182 180 176 177 186 192 193 196 202 208 192 179 176 177
250 216 195 206 206 203 196 180 176 179 184 187 190 190 190 195 201 209 218 223 231 251 292 12 344 336 20 26 38 98 135 157 161 168 172 171 172 172 173 176 176 177 177 177 176 175 175 175 174 173 175 181 185 184 183 183 183 186 192 189 183 180 178 180 185 186 182 180 185 190 191 188 185 180 178 185 192 192 192 196 202 198 184 181 181 179
227 200 195 219 202 193 196 188 178 180 184 184 186 188 186 190 199 209 219 222 228 247 265 297 300 319 58 54 66 99 131 156 163 173 177 177 176 176 177 178 178 177 177 176 173 171 174 176 175 176 179 184 186 183 182 183 183 185 189 187 183 180 180 187 192 187 182 180 182 188 188 186 186 184 184 189 191 190 192 196 198 191 183 184 185 180
229 230 234 241 206 181 187 191 180 180 186 188 189 190 188 189 193 205 220 225 228 237 240 252 272 9 74 71 96 122 155 167 170 177 179 180 180 180 180 180 179 177 174 174 172 168 171 174 176 179 181 180 181 182 183 184 183 183 185 183 183 183 185 193 194 186 181 180 180 183 185 186 188 186 186 189 189 190 194 193 190 187 184 187 187 181
239 248 238 225 195 165 178 189 179 175 186 196 196 192 188 188 190 200 218 227 230 235 236 244 288 59 75 97 128 145 172 177 176 179 181 183 183 183 183 180 178 177 174 174 172 167 168 170 170 175 179 179 180 182 182 184 184 182 182 184 188 188 190 196 193 184 180 180 181 185 189 192 190 186 187 189 189 193 195 190 189 188 187 190 188 183
250 248 240 221 187 158 169 179 177 180 188 189 188 190 191 191 189 195 215 227 230 233 239 268 339 34 77 119 133 156 178 180 181 181 182 184 184 183 182 177 175 176 175 174 173 169 169 170 168 172 179 182 184 184 185 189 188 183 181 186 193 193 194 196 191 185 181 180 183 192 196 193 189 187 189 191 192 195 194 191 192 192 191 192 189 186
255 241 238 227 182 150 158 171 179 187 179 91 99 171 185 193 195 199 214 226 232 238 243 263 297 335 49 91 114 165 179 177 181 181 178 181 182 180 179 175 170 171 172 174 175 173 170 171 172 173 175 180 184 185 186 191 190 185 183 186 192 196 195 192 190 187 183 182 185 190 193 191 189 190 192 193 193 193 194 196 196 194 194 193 191 188
245 236 227 212 161 143 159 174 173 154 110 93 110 133 139 179 197 201 213 223 237 255 258 263 279 343 46 101 174 169 173 171 180 186 179 177 177 174 175 174 167 166 170 173 177 176 171 171 173 172 172 180 185 185 184 188 190 190 189 185 190 197 193 188 189 188 183 182 182 184 192 196 194 193 194 196 196 194 197 199 196 195 195 193 190 189
226 231 211 187 156 157 164 158 144 133 123 118 130 142 147 183 196 200 215 218 216 252 270 272 265 120 99 171 159 141 155 157 171 192 185 178 176 169 166 168 168 168 168 169 173 175 171 170 175 180 184 189 189 188 189 188 187 192 193 187 190 199 192 184 187 188 185 183 183 188 198 201 196 193 196 199 198 197 198 198 195 195 196 193 190 189
216 234 229 192 165 168 163 147 144 153 143 123 114 116 115 197 178 195 222 205 173 186 242 259 240 149 141 155 142 145 159 161 166 188 184 180 178 169 159 158 163 168 168 167 169 171 171 174 178 182 187 189 188 189 190 185 183 191 196 191 193 199 192 186 187 189 187 187 189 193 200 202 199 197 198 199 201 200 199 197 195 195 194 193 192 190
203 240 257 217 163 163 164 152 147 139 108 97 101 99 93 87 108 168 216 194 153 149 202 225 188 152 148 149 149 159 179 167 107 140 168 176 174 166 158 154 158 165 168 171 173 174 177 180 176 173 178 186 191 192 188 185 187 194 197 196 196 197 195 192 191 190 189 188 189 193 197 199 199 197 198 202 204 203 200 197 194 192 192 192 192 191
183 222 231 186 158 167 172 150 130 98 77 83 82 77 96 138 150 183 199 170 109 118 174 191 165 148 145 150 156 166 204 49 56 96 148 164 164 160 159 158 159 163 165 170 173 173 174 175 170 168 174 182 189 190 187 189 196 196 194 196 196 196 199 198 194 193 192 190 189 193 194 194 194 195 199 203 203 201 199 195 192 191 191 190 188 188
104 109 184 165 157 167 168 140 114 89 73 60 44 53 111 154 173 189 189 94 58 91 142 160 149 140 144 154 154 99 39 30 26 119 149 155 157 158 159 159 162 164 167 171 170 168 169 171 170 172 175 177 184 190 193 197 201 197 193 193 196 200 204 203 199 198 195 191 190 193 194 194 196 198 202 204 202 198 194 191 192 191 189 187 184 184
7 22 104 132 146 152 147 132 117 105 65 7 15 82 131 171 173 150 96 36 43 83 115 134 138 139 145 148 117 70 48 36 54 125 148 150 152 156 157 159 163 164 167 176 176 169 169 173 174 174 174 175 183 194 199 200 200 199 196 195 199 204 206 204 203 201 195 190 191 194 194 196 198 200 204 204 199 193 189 190 192 191 188 187 186 186
346 339 111 85 74 152 147 138 131 115 54 352 349 132 142 117 109 101 81 56 57 80 105 120 129 139 146 135 100 75 53 44 62 106 137 145 148 154 158 163 166 163 166 179 182 172 168 172 174 173 172 174 181 191 199 201 201 202 203 203 205 205 204 204 205 203 195 192 195 197 196 197 199 200 202 200 195 192 191 191 192 190 189 189 188 188
6 2 75 48 14 185 140 114 101 83 34 6 13 77 73 56 68 83 81 73 67 73 91 106 119 133 139 137 126 91 56 51 63 91 125 140 149 158 163 166 170 169 172 180 181 172 169 172 173 173 174 179 184 189 198 203 203 201 202 205 207 207 206 207 207 203 198 197 200 200 198 198 202 202 201 198 195 193 194 194 193 192 190 188 188 188
13 356 348 28 32 42 68 77 75 61 49 44 53 70 75 72 69 69 75 79 73 68 78 96 114 126 127 131 139 119 81 81 80 89 116 140 154 163 167 170 172 173 175 178 177 174 174 176 177 177 179 183 186 190 197 201 199 196 198 202 207 209 209 209 207 205 204 203 204 202 198 199 203 203 201 199 196 195 196 197 197 195 190 188 189 189
352 327 306 349 36 58 78 77 66 60 60 62 70 77 81 80 75 71 78 81 75 71 79 91 106 117 123 126 124 120 127 127 114 109 116 135 154 164 169 171 174 176 176 176 178 178 177 179 182 185 186 187 188 195 200 200 201 206 211 212 212 213 211 210 210 210 209 207 206 204 200 200 202 201 199 200 199 197 198 200 199 196 192 189 190 191
16 349 345 11 14 54 96 68 45 51 56 58 74 82 77 73 72 73 80 83 81 83 88 94 100 103 106 109 108 116 135 141 140 138 133 134 149 161 168 172 176 176 174 177 181 180 177 180 187 192 197 200 200 204 208 209 211 216 221 220 219 217 215 215 216 215 212 208 207 206 202 201 201 200 197 197 198 198 201 203 202 198 194 192 192 192
0 344 353 22 17 31 89 55 45 73 67 55 63 67 59 62 67 72 82 88 89 89 91 93 95 94 93 97 98 109 131 145 152 153 150 147 148 155 167 175 177 175 174 179 183 180 178 185 191 194 198 204 208 211 211 212 216 219 220 222 223 221 219 220 219 216 213 211 210 208 204 202 203 201 196 194 196 200 203 204 204 204 202 199 196 194
293 320 4 37 31 83 92 33 35 84 79 59 51 46 43 47 54 64 78 86 88 90 90 89 89 89 91 95 93 95 114 133 146 152 152 151 150 154 164 172 176 177 177 179 181 180 181 187 188 188 193 201 207 211 211 212 217 219 220 223 224 221 221 223 220 216 214 213 211 208 204 203 203 202 199 196 197 200 204 206 207 208 209 208 205 201
292 344 50 105 175 139 82 28 15 43 71 54 36 30 33 37 39 49 60 62 66 74 79 84 87 86 88 92 93 93 102 117 133 141 141 144 151 156 161 165 170 175 178 180 182 183 186 187 182 185 195 202 203 207 211 214 215 215 216 220 222 221 221 220 216 214 214 214 212 209 206 205 204 203 203 201 199 200 205 210 210 209 210 213 212 209
2 24 36 105 148 102 56 37 21 12 60 58 33 21 28 33 33 39 45 46 51 57 60 68 76 75 76 83 89 94 101 112 124 130 130 133 143 153 158 161 165 170 177 183 183 184 189 190 183 183 193 200 201 204 211 213 209 207 210 215 218 220 219 214 212 212 212 213 212 211 211 210 206 205 206 205 202 202 207 212 213 212 214 217 217 215
Height
1465 1462 1458 1454 1451 1449 1450 1450 1446 1445 1445 1440 1443 1447 1446 1449 1451 1447 1448 1451 1453 1459 1460 1460 1463 1463 1462 1462 1463 1466 1468 1469 1471 1473 1476 1478 1480 1482 1484 1487 1489 1492 1494 1497 1499 1501 1502 1504 1506 1508 1510 1511 1512 1514 1515 1517 1519 1522 1524 1526 1528 1531 1534 1536 1539 1541 1542 1544 1545 1547 1548 1549 1550 1552 1553 1554 1555 1556 1557 1558 1558 1559 1560 1560 1561 1562
1461 1457 1449 1447 1448 1447 1450 1452 1448 1449 1448 1441 1441 1444 1445 1447 1446 1445 1446 1448 1451 1455 1455 1457 1460 1459 1459 1459 1460 1463 1465 1467 1468 1469 1473 1476 1478 1480 1482 1485 1488 1490 1493 1496 1498 1500 1501 1503 1505 1507 1508 1509 1510 1511 1513 1515 1518 1521 1523 1525 1528 1530 1533 1535 1538 1540 1541 1543 1544 1545 1547 1548 1550 1551 1552 1553 1554 1556 1557 1557 1558 1559 1559 1559 1560 1561
1457 1452 1444 1444 1447 1447 1449 1451 1449 1450 1448 1443 1442 1443 1444 1443 1442 1445 1445 1445 1450 1453 1452 1454 1457 1456 1455 1456 1457 1460 1462 1464 1467 1468 1470 1473 1476 1479 1481 1483 1486 1489 1492 1494 1497 1499 1500 1502 1504 1505 1506 1507 1508 1510 1512 1514 1517 1520 1522 1524 1527 1529 1532 1534 1537 1539 1540 1542 1543 1545 1546 1547 1549 1550 1551 1552 1553 1555 1557 1557 1558 1558 1558 1558 1559 1561
1451 1446 1442 1442 1445 1447 1447 1449 1450 1452 1449 1443 1440 1441 1441 1438 1440 1446 1445 1445 1449 1451 1449 1450 1454 1454 1452 1454 1454 1456 1460 1463 1466 1468 1470 1472 1474 1477 1479 1482 1485 1487 1490 1493 1496 1497 1499 1501 1502 1503 1504 1505 1506 1508 1510 1513 1515 1518 1520 1523 1526 1528 1531 1533 1535 1537 1539 1541 1543 1545 1546 1547 1548 1549 1550 1552 1553 1555 1556 1557 1557 1557 1557 1558 1559 1560
1442 1439 1440 1441 1444 1447 1448 1449 1451 1452 1450 1444 1439 1438 1437 1436 1438 1440 1441 1445 1449 1451 1448 1449 1457 1455 1449 1451 1452 1453 1458 1460 1463 1466 1468 1471 1473 1475 1478 1480 1483 1485 1488 1491 1494 1496 1497 1498 1500 1501 1502 1503 1504 1506 1508 1511 1514 1516 1519 1522 1525 1528 1530 1532 1534 1536 1538 1541 1543 1545 1546 1546 1547 1548 1550 1551 1553 1554 1555 1556 1556 1556 1557 1558 1559 1560
1440 1438 1439 1442 1445 1447 1448 1447 1448 1448 1448 1446 1441 1436 1433 1434 1437 1436 1438 1446 1453 1456 1449 1449 1462 1458 1445 1446 1450 1451 1455 1457 1460 1463 1465 1469 1471 1474 1476 1478 1480 1483 1486 1489 1491 1494 1496 1496 1498 1499 1500 1501 1502 1504 1507 1510 1513 1515 1518 1521 1524 1526 1529 1532 1534 1535 1536 1538 1540 1543 1544 1545 1546 1547 1549 1551 1554 1554 1555 1555 1556 1557 1558 1558 1559 1560
1437 1438 1439 1442 1444 1445 1445 1443 1444 1445 1446 1445 1441 1438 1434 1433 1436 1437 1438 1445 1451 1452 1446 1445 1456 1454 1444 1444 1447 1449 1453 1455 1457 1460 1462 1465 1468 1471 1473 1475 1477 1480 1483 1486 1489 1492 1494 1494 1495 1497 1497 1499 1500 1503 1506 1509 1512 1514 1515 1518 1521 1524 1529 1532 1534 1535 1535 1536 1537 1540 1542 1543 1545 1547 1549 1551 1553 1553 1554 1556 1556 1557 1558 1559 1560 1560
1436 1440 1441 1441 1442 1442 1442 1440 1440 1442 1444 1440 1435 1438 1438 1434 1436 1437 1438 1443 1442 1441 1442 1443 1447 1448 1443 1439 1441 1445 1450 1452 1454 1457 1459 1462 1465 1467 1469 1472 1474 1477 1480 1484 1487 1489 1491 1492 1493 1495 1496 1497 1500 1502 1505 1508 1510 1511 1514 1517 1520 1524 1529 1531 1532 1534 1534 1535 1536 1538 1540 1542 1544 1547 1549 1550 1551 1553 1555 1557 1556 1557 1558 1559 1560 1560
1436 1441 1440 1439 1440 1438 1436 1435 1436 1440 1442 1435 1432 1437 1439 1437 1436 1434 1437 1440 1436 1439 1446 1442 1443 1450 1443 1431 1433 1441 1446 1448 1449 1453 1457 1458 1462 1464 1466 1469 1472 1475 1478 1481 1485 1487 1489 1491 1491 1493 1494 1496 1499 1501 1505 1507 1507 1510 1514 1519 1521 1523 1528 1529 1530 1531 1532 1534 1535 1537 1539 1542 1544 1545 1547 1548 1549 1551 1555 1557 1556 1557 1557 1558 1559 1559
1437 1440 1438 1436 1437 1434 1432 1433 1434 1439 1438 1432 1433 1437 1436 1437 1436 1435 1437 1436 1436 1443 1446 1439 1439 1450 1443 1428 1431 1438 1440 1442 1444 1448 1452 1454 1457 1461 1463 1467 1470 1473 1476 1479 1482 1485 1487 1489 1490 1491 1493 1495 1498 1501 1504 1505 1506 1510 1513 1517 1520 1523 1526 1528 1529 1530 1531 1533 1534 1536 1538 1541 1542 1543 1546 1547 1548 1549 1553 1556 1556 1556 1556 1556 1557 1557
1436 1438 1438 1435 1434 1431 1430 1432 1434 1438 1435 1431 1435 1436 1437 1439 1437 1437 1435 1431 1440 1449 1442 1432 1431 1442 1443 1429 1427 1433 1433 1434 1439 1443 1447 1449 1453 1457 1460 1464 1467 1470 1473 1477 1480 1483 1485 1487 1488 1489 1491 1494 1497 1500 1502 1503 1505 1508 1510 1513 1518 1520 1523 1525 1527 1529 1531 1532 1534 1536 1538 1540 1541 1543 1545 1546 1546 1548 1552 1555 1555 1555 1555 1555 1556 1556
1435 1436 1437 1434 1433 1431 1430 1433 1435 1437 1433 1431 1433 1433 1439 1443 1441 1444 1441 1437 1447 1449 1435 1425 1425 1437 1442 1426 1417 1425 1428 1429 1433 1437 1441 1445 1448 1453 1457 1460 1464 1467 1471 1475 1478 1481 1483 1485 1485 1487 1490 1493 1496 1500 1500 1501 1504 1506 1508 1512 1516 1518 1519 1521 1524 1527 1530 1531 1533 1535 1537 1539 1541 1543 1545 1545 1545 1548 1551 1553 1553 1553 1554 1554 1554 1555
1436 1433 1433 1434 1434 1431 1430 1432 1435 1437 1433 1431 1430 1429 1438 1445 1449 1453 1449 1444 1446 1439 1425 1418 1423 1434 1434 1419 1412 1419 1425 1425 1427 1431 1435 1440 1444 1448 1453 1457 1461 1465 1469 1472 1475 1478 1480 1482 1483 1485 1488 1491 1495 1498 1498 1499 1503 1504 1507 1511 1516 1519 1518 1519 1522 1525 1528 1530 1532 1535 1537 1540 1542 1543 1543 1544 1545 1548 1550 1552 1552 1552 1552 1553 1553 1553
1437 1432 1431 1434 1434 1430 1428 1427 1430 1432 1430 1428 1425 1424 1430 1438 1451 1456 1446 1444 1443 1434 1422 1416 1423 1433 1428 1416 1413 1417 1420 1421 1424 1428 1432 1436 1441 1446 1450 1454 1459 1463 1466 1470 1473 1476 1478 1479 1482 1483 1487 1490 1493 1497 1497 1498 1501 1504 1507 1511 1516 1519 1518 1518 1521 1523 1526 1529 1531 1534 1536 1539 1542 1542 1543 1544 1546 1548 1550 1551 1551 1551 1551 1551 1552 1552
1436 1435 1431 1430 1429 1429 1426 1421 1422 1424 1425 1426 1419 1418 1420 1422 1437 1444 1437 1438 1438 1432 1428 1425 1429 1434 1426 1416 1410 1412 1417 1418 1423 1427 1430 1435 1438 1443 1449 1452 1457 1461 1464 1468 1470 1473 1476 1478 1480 1482 1486 1489 1492 1495 1497 1498 1500 1502 1505 1510 1515 1518 1518 1518 1520 1522 1524 1528 1531 1533 1535 1538 1539 1540 1542 1544 1546 1547 1549 1550 1550 1550 1550 1550 1550 1550
1430 1428 1424 1425 1424 1425 1425 1420 1417 1420 1425 1425 1419 1419 1419 1411 1417 1428 1427 1424 1424 1429 1435 1432 1428 1421 1415 1413 1409 1411 1416 1417 1421 1426 1428 1434 1437 1441 1447 1450 1454 1458 1461 1465 1468 1471 1474 1476 1479 1481 1484 1488 1490 1494 1495 1497 1499 1501 1504 1509 1514 1517 1518 1518 1520 1522 1525 1528 1530 1531 1534 1537 1538 1539 1541 1543 1545 1547 1549 1550 1549 1549 1549 1549 1549 1549
1425 1422 1419 1424 1423 1421 1424 1420 1416 1418 1421 1422 1423 1422 1414 1405 1409 1423 1430 1423 1421 1434 1437 1431 1427 1418 1415 1418 1413 1414 1418 1417 1422 1425 1427 1433 1436 1440 1444 1447 1451 1455 1458 1462 1465 1468 1471 1474 1477 1479 1483 1486 1489 1492 1494 1496 1498 1499 1502 1507 1512 1515 1517 1518 1520 1523 1525 1527 1530 1531 1533 1536 1537 1538 1540 1542 1545 1546 1548 1549 1549 1549 1549 1549 1549 1549
1417 1420 1420 1422 1422 1421 1423 1421 1417 1416 1414 1417 1423 1418 1411 1413 1415 1417 1429 1434 1433 1438 1434 1428 1428 1424 1423 1424 1416 1415 1419 1419 1422 1425 1427 1431 1435 1438 1442 1445 1449 1452 1456 1460 1462 1466 1469 1472 1475 1478 1481 1485 1487 1490 1492 1494 1497 1498 1501 1506 1510 1513 1515 1517 1519 1521 1524 1526 1528 1529 1531 1534 1535 1537 1539 1541 1544 1546 1547 1547 1548 1548 1549 1549 1549 1549
1410 1419 1422 1419 1419 1420 1421 1421 1422 1419 1413 1413 1416 1413 1414 1427 1427 1418 1425 1436 1437 1437 1433 1429 1427 1421 1419 1418 1415 1416 1417 1417 1421 1423 1426 1429 1432 1436 1439 1443 1447 1450 1455 1458 1461 1464 1467 1470 1473 1476 1480 1483 1486 1489 1491 1493 1496 1498 1501 1504 1507 1510 1511 1514 1516 1518 1521 1524 1526 1527 1529 1533 1534 1536 1538 1540 1543 1545 1546 1547 1547 1548 1548 1548 1548 1549
1410 1417 1421 1418 1416 1419 1420 1420 1422 1421 1418 1417 1415 1412 1414 1419 1418 1414 1417 1422 1426 1431 1432 1431 1430 1421 1410 1405 1408 1412 1412 1414 1418 1420 1423 1426 1429 1433 1436 1440 1445 1448 1452 1455 1458 1462 1464 1468 1471 1474 1478 1481 1484 1487 1489 1492 1495 1497 1500 1503 1505 1508 1510 1513 1515 1517 1519 1522 1524 1525 1528 1531 1533 1535 1537 1539 1542 1543 1544 1546 1546 1547 1547 1547 1548 1549
1413 1416 1418 1415 1414 1418 1418 1416 1416 1415 1418 1421 1419 1416 1416 1413 1408 1408 1410 1407 1410 1420 1426 1432 1434 1420 1403 1399 1403 1406 1408 1411 1415 1418 1421 1423 1426 1431 1434 1438 1443 1446 1450 1453 1456 1459 1462 1466 1470 1473 1477 1480 1483 1486 1488 1491 1494 1497 1499 1502 1504 1506 1508 1510 1513 1515 1517 1519 1522 1524 1526 1529 1531 1533 1536 1538 1541 1542 1543 1545 1545 1546 1546 1546 1547 1548
1416 1415 1413 1413 1415 1416 1413 1411 1411 1410 1412 1416 1416 1413 1414 1413 1411 1415 1421 1412 1403 1409 1415 1424 1430 1415 1398 1398 1402 1403 1405 1407 1410 1415 1418 1421 1424 1429 1433 1437 1441 1444 1448 1451 1454 1458 1461 1465 1468 1472 1475 1478 1481 1484 1487 1490 1493 1496 1498 1500 1502 1504 1506 1508 1510 1514 1516 1517 1520 1523 1525 1527 1529 1532 1534 1537 1539 1541 1543 1544 1544 1545 1546 1546 1547 1548
1413 1411 1409 1410 1411 1411 1409 1409 1410 1408 1409 1412 1413 1410 1408 1410 1411 1414 1422 1417 1409 1409 1407 1411 1420 1410 1396 1400 1402 1402 1404 1405 1408 1412 1415 1419 1424 1428 1432 1436 1440 1443 1447 1450 1453 1457 1460 1463 1466 1470 1473 1476 1479 1482 1485 1488 1491 1494 1497 1499 1501 1503 1505 1507 1509 1512 1514 1516 1519 1522 1524 1526 1528 1530 1533 1536 1538 1540 1542 1543 1543 1545 1546 1546 1547 1548
1413 1411 1410 1412 1410 1407 1405 1409 1410 1408 1410 1413 1412 1408 1405 1408 1408 1404 1405 1408 1412 1414 1410 1415 1423 1411 1400 1403 1404 1404 1406 1406 1409 1412 1415 1419 1424 1428 1432 1435 1439 1443 1446 1449 1452 1455 1459 1462 1465 1468 1471 1474 1477 1480 1483 1486 1489 1493 1495 1498 1500 1502 1504 1506 1508 1511 1513 1515 1518 1520 1523 1525 1527 1529 1532 1534 1536 1539 1541 1542 1543 1545 1546 1546 1547 1547
1414 1410 1410 1415 1418 1417 1415 1418 1416 1409 1407 1409 1409 1407 1405 1407 1407 1403 1401 1407 1413 1411 1407 1414 1419 1410 1404 1405 1405 1405 1408 1408 1411 1414 1416 1420 1424 1427 1432 1434 1438 1442 1444 1448 1451 1454 1457 1460 1463 1466 1470 1473 1476 1479 1481 1484 1487 1491 1494 1497 1499 1502 1503 1505 1508 1510 1512 1514 1517 1519 1522 1524 1526 1529 1531 1533 1535 1538 1540 1542 1543 1544 1545 1546 1546 1547
1416 1412 1408 1413 1420 1423 1421 1417 1412 1407 1406 1407 1406 1407 1408 1406 1407 1407 1409 1414 1417 1413 1408 1406 1406 1405 1405 1405 1404 1406 1408 1409 1411 1414 1416 1420 1423 1426 1430 1433 1436 1439 1443 1446 1449 1452 1456 1459 1462 1465 1468 1471 1475 1477 1479 1482 1486 1489 1493 1496 1499 1501 1502 1504 1507 1509 1511 1514 1516 1519 1521 1523 1526 1528 1530 1532 1534 1537 1539 1541 1542 1544 1544 1545 1545 1547
1415 1412 1407 1406 1407 1408 1406 1402 1399 1402 1406 1408 1406 1407 1408 1407 1406 1408 1413 1415 1412 1412 1412 1403 1399 1404 1404 1401 1404 1407 1407 1409 1411 1413 1416 1419 1422 1425 1428 1431 1435 1438 1442 1445 1448 1452 1455 1457 1461 1464 1466 1470 1473 1476 1477 1481 1485 1488 1490 1494 1497 1500 1501 1503 1505 1508 1510 1513 1515 1518 1521 1523 1525 1527 1529 1531 1534 1536 1538 1540 1542 1542 1543 1544 1545 1546
1412 1410 1406 1403 1399 1394 1392 1394 1395 1400 1405 1406 1406 1407 1407 1408 1408 1409 1413 1411 1405 1409 1413 1404 1402 1408 1405 1401 1404 1407 1407 1410 1411 1412 1415 1418 1420 1424 1427 1430 1434 1437 1441 1444 1447 1450 1453 1456 1459 1462 1465 1469 1472 1474 1476 1480 1484 1486 1489 1492 1496 1498 1500 1502 1504 1507 1509 1512 1515 1518 1520 1522 1525 1526 1528 1531 1533 1535 1537 1539 1541 1541 1542 1543 1544 1545
1411 1409 1404 1403 1401 1393 1389 1392 1396 1399 1402 1403 1404 1406 1407 1408 1409 1410 1411 1408 1404 1408 1410 1407 1408 1410 1406 1403 1405 1406 1407 1409 1411 1413 1415 1418 1420 1423 1426 1429 1432 1435 1439 1442 1445 1448 1451 1455 1458 1461 1464 1467 1470 1472 1476 1479 1482 1485 1488 1491 1494 1496 1498 1500 1503 1506 1509 1511 1514 1517 1519 1521 1524 1526 1528 1530 1532 1535 1537 1538 1539 1540 1541 1542 1543 1545
1411 1408 1403 1402 1402 1397 1394 1394 1396 1399 1401 1402 1404 1405 1407 1408 1409 1410 1409 1406 1406 1407 1405 1407 1410 1409 1406 1407 1407 1407 1409 1410 1412 1414 1416 1418 1420 1422 1425 1428 1430 1433 1437 1440 1444 1448 1451 1454 1457 1460 1463 1465 1468 1471 1474 1478 1481 1483 1486 1489 1492 1494 1497 1499 1502 1505 1508 1511 1513 1516 1518 1520 1523 1525 1527 1529 1532 1534 1535 1537 1538 1539 1540 1542 1543 1544
1411 1408 1403 1401 1401 1401 1398 1394 1394 1397 1400 1403 1405 1405 1406 1409 1411 1411 1409 1406 1408 1409 1407 1408 1410 1408 1408 1410 1410 1411 1413 1413 1414 1415 1416 1417 1420 1421 1424 1426 1429 1432 1436 1440 1444 1447 1450 1453 1456 1458 1461 1464 1468 1470 1473 1476 1479 1482 1485 1488 1491 1493 1496 1498 1501 1504 1507 1509 1512 1515 1517 1519 1522 1524 1526 1528 1530 1532 1534 1535 1537 1538 1539 1540 1542 1543
1410 1407 1404 1402 1402 1401 1398 1396 1395 1396 1399 1403 1406 1405 1405 1409 1411 1411 1408 1405 1407 1409 1410 1411 1410 1408 1410 1412 1412 1413 1414 1414 1414 1415 1416 1417 1419 1421 1423 1425 1428 1432 1435 1439 1443 1445 1448 1451 1454 1457 1461 1464 1467 1469 1473 1475 1478 1481 1484 1487 1490 1492 1494 1497 1500 1503 1506 1508 1511 1513 1516 1518 1520 1522 1525 1527 1529 1531 1533 1534 1536 1537 1538 1539 1541 1542
1408 1406 1403 1400 1399 1398 1397 1396 1395 1398 1406 1409 1403 1400 1403 1406 1408 1409 1406 1403 1404 1407 1411 1412 1409 1409 1412 1413 1414 1415 1415 1415 1415 1415 1417 1418 1419 1421 1423 1425 1428 1432 1435 1439 1442 1445 1448 1451 1454 1457 1460 1463 1465 1468 1472 1475 1478 1480 1483 1487 1490 1492 1494 1496 1499 1502 1505 1507 1510 1512 1514 1517 1519 1522 1524 1526 1528 1530 1532 1533 1535 1536 1537 1539 1540 1541
1406 1406 1402 1395 1393 1396 1397 1395 1397 1405 1412 1408 1397 1394 1399 1402 1405 1409 1406 1402 1403 1404 1407 1408 1407 1409 1412 1413 1413 1415 1414 1414 1414 1415 1417 1418 1419 1421 1423 1425 1429 1432 1435 1439 1442 1445 1448 1451 1454 1456 1459 1462 1465 1468 1471 1474 1477 1479 1482 1486 1489 1491 1493 1495 1498 1502 1504 1506 1509 1511 1513 1516 1518 1521 1523 1525 1527 1529 1531 1532 1534 1535 1536 1537 1539 1540
1406 1405 1403 1393 1389 1393 1396 1398 1408 1414 1409 1402 1397 1396 1398 1399 1402 1405 1404 1402 1402 1403 1405 1408 1409 1409 1411 1413 1414 1414 1414 1415 1415 1416 1417 1418 1420 1422 1424 1426 1429 1432 1435 1438 1441 1445 1447 1450 1453 1456 1458 1461 1464 1467 1471 1474 1476 1479 1482 1485 1488 1489 1492 1495 1498 1501 1503 1505 1508 1510 1513 1515 1517 1520 1522 1524 1526 1528 1530 1531 1532 1533 1535 1536 1538 1539
1406 1404 1400 1391 1387 1393 1399 1403 1412 1412 1403 1401 1403 1401 1401 1403 1403 1406 1408 1405 1404 1404 1405 1408 1409 1409 1411 1414 1415 1415 1416 1417 1417 1417 1417 1419 1420 1422 1425 1427 1430 1432 1435 1438 1441 1444 1446 1449 1452 1455 1458 1460 1463 1467 1470 1473 1475 1478 1481 1484 1486 1488 1491 1494 1497 1499 1502 1505 1507 1509 1512 1514 1516 1519 1521 1523 1524 1526 1528 1529 1530 1532 1533 1535 1537 1538
1403 1400 1394 1390 1389 1392 1397 1400 1404 1405 1404 1405 1405 1402 1403 1405 1404 1407 1411 1409 1405 1405 1406 1407 1409 1411 1413 1414 1415 1416 1417 1418 1419 1418 1418 1420 1421 1423 1425 1428 1430 1433 1435 1438 1441 1443 1446 1449 1452 1455 1457 1459 1463 1466 1469 1471 1475 1478 1480 1482 1484 1487 1489 1492 1495 1498 1501 1504 1506 1508 1511 1513 1515 1517 1519 1521 1522 1523 1525 1527 1528 1530 1531 1533 1535 1536
1399 1396 1390 1390 1390 1387 1391 1398 1403 1407 1408 1406 1403 1401 1403 1404 1404 1406 1410 1409 1406 1406 1407 1408 1410 1412 1414 1414 1415 1416 1417 1417 1417 1416 1417 1420 1422 1424 1426 1428 1430 1433 1435 1438 1441 1443 1446 1449 1451 1454 1456 1459 1463 1466 1468 1471 1474 1477 1479 1481 1483 1486 1488 1490 1493 1495 1499 1501 1504 1507 1509 1512 1514 1516 1517 1519 1520 1521 1522 1524 1525 1527 1529 1531 1533 1535
1397 1395 1390 1389 1388 1384 1388 1395 1400 1405 1408 1405 1402 1403 1405 1406 1406 1407 1412 1411 1406 1406 1409 1409 1410 1412 1414 1414 1415 1415 1414 1413 1413 1414 1417 1420 1422 1424 1427 1428 1430 1433 1435 1438 1441 1443 1446 1448 1450 1454 1456 1458 1462 1465 1468 1471 1474 1476 1478 1480 1482 1484 1486 1488 1491 1493 1496 1499 1502 1504 1507 1509 1512 1514 1515 1516 1517 1519 1520 1521 1523 1525 1527 1529 1531 1533
1393 1392 1387 1386 1386 1385 1385 1389 1395 1403 1407 1404 1403 1404 1406 1407 1408 1412 1418 1414 1406 1407 1410 1409 1410 1412 1413 1414 1415 1414 1413 1413 1413 1415 1418 1420 1423 1425 1427 1429 1431 1433 1436 1438 1441 1443 1446 1448 1450 1453 1456 1458 1461 1464 1468 1470 1473 1475 1477 1479 1481 1483 1484 1487 1490 1491 1495 1498 1501 1503 1505 1508 1510 1512 1513 1515 1516 1517 1518 1519 1521 1523 1525 1527 1530 1532
1390 1388 1383 1382 1384 1384 1385 1389 1397 1403 1405 1404 1404 1405 1406 1408 1410 1414 1416 1410 1406 1408 1410 1409 1410 1412 1413 1414 1413 1413 1414 1416 1416 1417 1419 1421 1423 1426 1428 1430 1432 1434 1436 1439 1441 1443 1446 1448 1451 1453 1456 1458 1461 1464 1467 1469 1472 1475 1477 1479 1481 1482 1484 1487 1489 1491 1495 1500 1502 1503 1505 1507 1509 1510 1511 1513 1514 1516 1517 1519 1520 1522 1524 1527 1529 1531
1398 1393 1387 1386 1387 1387 1387 1392 1398 1404 1407 1406 1406 1406 1406 1408 1410 1411 1409 1408 1408 1409 1410 1410 1411 1412 1413 1414 1413 1414 1417 1417 1417 1418 1419 1422 1424 1426 1428 1430 1432 1435 1437 1439 1441 1444 1446 1449 1451 1454 1456 1458 1461 1463 1466 1469 1471 1474 1476 1478 1480 1482 1484 1486 1488 1490 1495 1499 1501 1502 1504 1505 1507 1509 1510 1512 1514 1516 1517 1518 1520 1521 1523 1526 1528 1530
1406 1399 1393 1394 1396 1393 1392 1397 1404 1409 1410 1407 1405 1406 1406 1407 1409 1409 1409 1409 1409 1409 1410 1411 1412 1413 1414 1415 1416 1417 1418 1417 1418 1419 1421 1422 1424 1426 1429 1431 1433 1435 1437 1439 1441 1444 1446 1449 1451 1453 1455 1458 1460 1462 1465 1468 1470 1473 1475 1478 1480 1482 1484 1485 1487 1491 1495 1497 1499 1500 1502 1504 1506 1508 1509 1511 1513 1515 1516 1517 1519 1520 1522 1524 1526 1529
1409 1404 1401 1402 1403 1398 1398 1405 1411 1411 1410 1407 1406 1407 1407 1408 1410 1410 1410 1410 1410 1410 1411 1411 1413 1414 1415 1416 1417 1419 1419 1419 1420 1420 1422 1423 1425 1427 1430 1431 1433 1435 1437 1439 1441 1444 1446 1448 1450 1453 1455 1456 1458 1461 1463 1466 1469 1472 1475 1477 1479 1481 1483 1485 1487 1490 1493 1495 1497 1499 1501 1502 1504 1506 1508 1510 1512 1514 1516 1517 1518 1520 1521 1523 1525 1527
1415 1414 1412 1410 1408 1405 1406 1410 1412 1410 1410 1410 1409 1409 1411 1412 1413 1413 1412 1412 1412 1412 1412 1413 1414 1416 1417 1418 1419 1420 1420 1421 1421 1422 1423 1425 1426 1428 1430 1432 1433 1435 1436 1438 1441 1442 1445 1447 1449 1451 1454 1455 1457 1459 1461 1464 1468 1470 1473 1475 1477 1479 1482 1483 1485 1488 1491 1493 1495 1497 1499 1501 1503 1504 1506 1509 1511 1513 1515 1517 1518 1519 1520 1522 1524 1526
1419 1417 1415 1412 1410 1410 1411 1411 1411 1411 1412 1412 1413 1414 1415 1415 1415 1415 1415 1415 1415 1415 1415 1415 1416 1417 1418 1419 1420 1420 1421 1422 1423 1424 1425 1426 1427 1429 1430 1432 1433 1435 1436 1438 1440 1441 1444 1446 1448 1450 1452 1454 1456 1457 1459 1463 1466 1467 1470 1473 1475 1477 1479 1482 1484 1486 1488 1491 1493 1495 1498 1499 1501 1503 1505 1508 1510 1512 1514 1516 1517 1518 1519 1520 1522 1524
1418 1416 1415 1413 1412 1413 1415 1413 1412 1413 1414 1414 1415 1415 1416 1417 1417 1417 1417 1417 1417 1418 1417 1417 1418 1418 1419 1420 1421 1421 1422 1423 1424 1425 1426 1427 1429 1430 1431 1432 1433 1435 1436 1438 1439 1441 1443 1445 1447 1448 1450 1453 1454 1456 1458 1461 1463 1465 1468 1471 1473 1475 1478 1480 1482 1485 1486 1489 1491 1493 1495 1497 1499 1501 1504 1506 1509 1512 1513 1515 1516 1517 1518 1519 1520 1522
1418 1417 1416 1416 1416 1417 1417 1415 1414 1415 1415 1415 1416 1416 1417 1418 1418 1418 1418 1419 1419 1419 1419 1419 1419 1420 1420 1421 1421 1422 1423 1424 1425 1426 1427 1428 1430 1430 1431 1432 1433 1435 1437 1438 1439 1440 1443 1444 1446 1448 1450 1452 1453 1455 1457 1460 1462 1464 1467 1469 1472 1474 1476 1479 1481 1483 1485 1487 1489 1491 1494 1496 1498 1500 1502 1504 1507 1509 1511 1513 1514 1516 1516 1517 1519 1520
1421 1419 1419 1420 1420 1418 1417 1416 1415 1414 1415 1416 1417 1417 1418 1418 1419 1420 1420 1421 1421 1421 1421 1421 1421 1421 1422 1422 1422 1423 1424 1424 1425 1426 1427 1429 1429 1430 1431 1432 1433 1435 1437 1438 1439 1441 1442 1444 1445 1447 1449 1451 1452 1454 1456 1459 1461 1463 1465 1468 1470 1473 1475 1477 1479 1481 1483 1485 1487 1490 1493 1495 1497 1499 1500 1502 1505 1507 1509 1511 1513 1514 1516 1517 1518 1519
1421 1421 1421 1422 1423 1420 1418 1418 1418 1417 1417 1418 1418 1418 1419 1419 1419 1420 1421 1421 1422 1422 1422 1422 1422 1423 1423 1423 1423 1424 1425 1425 1425 1427 1428 1428 1429 1430 1431 1431 1433 1435 1436 1438 1439 1440 1442 1444 1445 1447 1449 1450 1452 1453 1455 1458 1460 1462 1464 1466 1469 1471 1473 1475 1477 1479 1481 1483 1486 1489 1491 1493 1495 1497 1499 1501 1503 1505 1507 1508 1510 1513 1514 1515 1516 1518
1423 1423 1422 1423 1425 1424 1421 1421 1421 1421 1420 1420 1420 1421 1420 1420 1420 1421 1421 1422 1422 1422 1422 1423 1424 1424 1424 1424 1424 1425 1425 1425 1425 1426 1427 1428 1429 1430 1430 1431 1433 1434 1436 1437 1438 1440 1441 1443 1445 1446 1448 1449 1451 1453 1455 1456 1458 1461 1463 1464 1466 1468 1470 1473 1475 1477 1479 1481 1484 1487 1489 1491 1493 1495 1497 1499 1501 1503 1504 1506 1508 1510 1512 1513 1515 1517